Weather History for Fitchburg, MA

Change the Weather History Date:

Sunday, March 10, 2013

  Actual Average (KORH) Record (KORH)
Temperature  
Mean Temperature 32 °F 33 °F  
Max Temperature 46 °F 41 °F 65 °F (1977)
Min Temperature 19 °F 25 °F -1 °F (1929)
Degree Days  
Heating Degree Days 32 32  
Month to date heating degree days 337  
Since 1 July heating degree days 5174  
Cooling Degree Days 0 0  
Month to date cooling degree days 0  
Year to date cooling degree days 0  
Moisture  
Dew Point 26 °F    
Average Humidity 71    
Maximum Humidity 96    
Minimum Humidity 47    
Precipitation  
Precipitation 0.00 in 0.13 in 1.34 in (1994)
Month to date precipitation 1.27  
Year to date precipitation 7.99  
Sea Level Pressure  
Sea Level Pressure 30.36 in    
Wind  
Wind Speed 3 mph (SE)    
Max Wind Speed 8 mph    
Max Gust Speed -    
Visibility 10 miles    
Events      
T = Trace of Precipitation, MM = Missing Value Source: NWS Daily Summary

Daily Weather History Graph

Daily Weather History Graph

Search for Another Location

Airport:

Trip Planner

Search our weather history database for the weather conditions in past years. The results will help you decide how hot, cold, wet, or windy it might be!

Date:

Astronomy

Mar. 10, 2013 Rise Set
Actual Time 7:07 AM EDT 6:47 PM EDT
Civil Twilight 6:39 AM EDT 7:15 PM EDT
Nautical Twilight 6:06 AM EDT 7:48 PM EDT
Astronomical Twilight 5:33 AM EDT 8:21 PM EDT
Moon 6:06 AM EDT (3/10) 5:52 PM EDT (3/10)
Length of Visible Light 12h 36m
Length of Day
11h 40m
Waning Crescent, 2% of the Moon is Illuminated
Mar 10
Waning Crescent
Mar 11
New
Mar 19
First Quarter
Mar 27
Full
Apr 3
Last Quarter

Hourly Weather History & Observations

Time (EDT) Temp. Windchill Dew Point Humidity Pressure Visibility Wind Dir Wind Speed Gust Speed Precip Events Conditions
12:52 AM 23.0 °F 18.4 °F 19.9 °F 88% 30.38 in 8.0 mi NNW 3.5 mph - N/A   Clear
1:52 AM 24.1 °F 19.7 °F 21.9 °F 91% 30.39 in 7.0 mi NW 3.5 mph - N/A   Clear
3:52 AM 21.9 °F - 21.0 °F 96% 30.38 in 8.0 mi Calm Calm - N/A   Clear
4:52 AM 21.9 °F - 19.0 °F 89% 30.38 in 8.0 mi Calm Calm - N/A   Clear
5:52 AM 21.0 °F - 19.0 °F 92% 30.39 in 9.0 mi Calm Calm - N/A   Clear
6:52 AM 19.9 °F - 17.1 °F 89% 30.40 in 10.0 mi Calm Calm - N/A   Clear
8:52 AM 25.0 °F 20.7 °F 23.0 °F 92% 30.43 in 10.0 mi NW 3.5 mph - N/A   Clear
9:52 AM 33.1 °F - 27.0 °F 78% 30.42 in 10.0 mi Calm Calm - N/A   Clear
10:52 AM 37.0 °F - 28.0 °F 70% 30.42 in 10.0 mi Calm Calm - N/A   Clear
11:52 AM 39.0 °F 35.7 °F 28.0 °F 65% 30.40 in 10.0 mi ESE 4.6 mph - N/A   Clear
12:52 PM 42.1 °F - 27.0 °F 55% 30.38 in 10.0 mi Calm Calm - N/A   Clear
1:52 PM 44.1 °F - 27.0 °F 51% 30.37 in 10.0 mi Calm Calm - N/A   Clear
2:52 PM 45.0 °F - 27.0 °F 49% 30.34 in 10.0 mi Calm Calm - N/A   Clear
3:52 PM 45.0 °F 41.8 °F 26.1 °F 48% 30.33 in 10.0 mi SSE 5.8 mph - N/A   Clear
4:52 PM 46.0 °F 43.1 °F 28.0 °F 50% 30.32 in 10.0 mi South 5.8 mph - N/A   Clear
5:52 PM 46.0 °F 41.9 °F 27.0 °F 47% 30.31 in 10.0 mi SSE 8.1 mph - N/A   Clear
6:52 PM 44.1 °F 40.8 °F 28.0 °F 53% 30.32 in 10.0 mi SE 5.8 mph - N/A   Clear
7:52 PM 41.0 °F 36.4 °F 28.9 °F 62% 30.34 in 10.0 mi SE 6.9 mph - N/A   Clear
8:52 PM 39.0 °F 35.7 °F 28.9 °F 67% 30.34 in 10.0 mi ESE 4.6 mph - N/A   Partly Cloudy
9:52 PM 37.0 °F 31.6 °F 30.0 °F 76% 30.32 in 10.0 mi SE 6.9 mph - N/A   Mostly Cloudy
11:52 PM 36.0 °F 31.1 °F 30.0 °F 79% 30.31 in 10.0 mi East 5.8 mph - N/A   Clear
12:52 AM 34.0 °F - 30.0 °F 85% 30.30 in 10.0 mi Calm Calm - N/A   Clear